Location: Morisset
(33.1080°S, 151.4871°E)
Time: 07:43:38
(UTC+00:00)

Cosmos 1544 Rocket - Pass Details

Date: 29 October 2020
Orbit: 605 x 630 km, 82.5° (Epoch: 27 November)

Event Time Altitude Azimuth Distance (km) Brightness Sun altitude
Rises 18:05:52 0° 349° (N) 2,897 6.7 -10.8°
Reaches altitude 10° 18:08:06 10° 346° (NNW) 1,996 5.8 -10.4°
Maximum altitude 18:12:30 68° 263° (W) 679 3.6 -9.5°
Drops below altitude 10° 18:16:57 10° 179° (S) 2,009 6.5 -8.7°
Sets 18:19:12 0° 176° (S) 2,919 7.4 -8.2°
